KOREASAT 5A

Last updated on Dec. 5, 2020, 6:14 a.m. UTC

1 42984U 17067A   20339.77363424 -.00000342  00000-0  00000-0 0  9991
2 42984   0.0355  97.8752 0001753 130.0038 237.8270  1.00269164 11281
UTC
Height (km)
Latitude
Longitude
Inclination
Orbital Period
UTC large
Height (km)
Speed (km/s)
/
Latitude / Longitude
Inclination (degrees)
Orbital Period (minutes)
Azimuth
Elevation
Range (km)
Doppler Factor
iOS Compass Heading
iOS Angle

Next 30 passes for location: Hong Kong

Rise time Rise Azimuth (degrees) Set time Set Azimuth (degrees) Duration Max altitude (degrees)

No matching passes for this satellites